Regional Weather Roundup
Issued by NWS

Home | Current Version | Previous Version | Graphics & Text | Print | Product List | Glossary On
Versions: 1 2 3 4 5 6 7 8 9 10 11 12 13 14 15 16 17 18 19 20 21 22 23 24 25 26 27 28 29 30 31 32 33 34 35 36 37 38 39 40 41 42 43 44 45 46 47 48 49 50
163
ASUS43 KFSD 130002
RWRSD

WEATHER ROUNDUP FOR SOUTH DAKOTA
NATIONAL WEATHER SERVICE SIOUX FALLS SD
600 PM CST FRI FEB 12 2016

NOTE: "FAIR" INDICATES FEW OR NO CLOUDS BELOW 12,000 FEET WITH NO
SIGNIFICANT WEATHER AND/OR OBSTRUCTIONS TO VISIBILITY.


SDZ001>005-009-010-012>017-130100-
NORTHWEST AND NORTH CENTRAL SOUTH DAKOTA

CITY           SKY/WX    TMP DP  RH WIND       PRES   REMARKS
BUFFALO          N/A     22  16  78 SE15      30.28F WCI   9
FAITH            N/A     20  11  68 E10       30.43S WCI   9
MOBRIDGE       CLOUDY    15   5  64 E6        30.53R WCI   6
$$

SDZ012>016-024>037-041>051-057-063-072>074-130100-
SOUTHWEST AND SOUTH CENTRAL SOUTH DAKOTA

CITY           SKY/WX    TMP DP  RH WIND       PRES   REMARKS
RAPID CTY ARPT CLOUDY    24  22  91 SE14      30.36R FOG     WCI  12
PIERRE         CLOUDY    17   9  70 E13       30.53R WCI   4
CUSTER         FOG       26  24  92 S10G25    30.23S VSB 1/4 WCI  16
ELLSWORTH AFB  FRZ DRZL  24  24  99 SE13      30.34  FOG     WCI  13
PHILIP         CLOUDY    24  17  74 E8        30.46R WCI  15
PINE RIDGE     CLOUDY    32  26  78 E7        30.34R WCI  26
WINNER         CLOUDY    21  12  68 E13       30.51S WCI   9
$$

SDZ004>011-016>023-039-040-130100-
NORTHEAST SOUTH DAKOTA

CITY           SKY/WX    TMP DP  RH WIND       PRES   REMARKS
ABERDEEN       CLOUDY     4  -7  60 N8        30.64S WCI  -9
WATERTOWN      CLOUDY    -2 -11  65 N9        30.56R WCI -18
BROOKINGS      CLOUDY     1  -8  66 N10       30.57R WCI -15
SISSETON         N/A     -3 -10  72 N9        30.64R WCI -19
$$

SDZ017-020-022-023-036>040-048>070-130100-
SOUTHEAST SOUTH DAKOTA

CITY           SKY/WX    TMP DP  RH WIND       PRES   REMARKS
SIOUX FALLS    CLOUDY     6  -6  57 N10       30.58R WCI  -9
HURON          CLOUDY     6  -3  66 N8        30.62S WCI  -7
CHAMBERLAIN    CLOUDY    14   6  70 E8        30.57R WCI   3
MITCHELL       CLOUDY     8   0  69 N8        30.63R WCI  -4
YANKTON        CLOUDY    12   0  57 N8        30.61R WCI   1
$$

ABBREVIATIONS USED IN REMARKS
   TC - TEMPERATURE IN CELSIUS
  WCI - WIND CHILL INDEX
   HX - HEAT INDEX
  VSB - VISIBILITY





USA.gov is the U.S. government's official web portal to all federal, state and local government web resources and services.